Über Polytech Univers-5
Group: 3 satellites
Beschreibung wird geladen...
Live-Position
3D-Globus wird geladen...
Nächste Überflüge
Höhenverlauf
Altitude vs Time
uPlot chart will show altitude changes over time
Zweizeiliger Elementsatz
1 61745U 24199L 26063.15705185 .00058785 00000-0 98340-3 0 9997
2 61745 97.3141 298.4228 0005233 308.8639 51.2146 15.51688906121344
Epoch: 4. März 2026 •
Age: 12 hours
Aktueller Status
Höhe 424.1 km
Geschwindigkeit 7.66 km/s
Subsatellitenpunkt 53.44°N,
145.68°E
Startdatum 4. Nov. 2024
Alter 1.3 years
Typ other
Technische Details
Klassifizierung Payload
Masse 5.07 kg
Trockenmasse 5.07 kg
Gesamtmasse 5.07 kg
Länge 0.30 m
Durchmesser 0.10 m
Spannweite 0.30 m
Form Box
Hersteller STTS
Bus-Typ Cubesat 3U
Phasenstatus In Orbit
Besitzer/Staat SPBPU/RU
Große Konstellationen
Loading constellations...